Location: Glums�
(55.3568°N, 11.6856°E)
Time: 10:20:05
(UTC+00:00)

Cosmos 1892 - Pass Details

Date: 07 June 2020
Orbit: 504 x 525 km, 82.5° (Epoch: 07 July)

Event Time Altitude Azimuth Distance (km) Brightness Sun altitude
Exits shadow 01:21:41 - 176° (S) 2,151 5.3 -7.1°
Reaches altitude 10° 01:22:42 10° 174° (S) 1,732 4.9 -7.1°
Maximum altitude 01:26:24 54° 97° (E) 630 3.3 -6.8°
Drops below altitude 10° 01:30:07 10° 20° (NNE) 1,737 7.0 -6.5°
Sets 01:32:17 0° 15° (NNE) 2,625 8.0 -6.3°
